STARLINK-11100, 59713

Orbit data source: Space-Track

STARLINK-11100, 59713 is a payload satellite owned by SpaceX/Seattle (US) in LEO that was launched on Fri, 10 May 2024 UTC via an FALCON 9 launch vehicle from the Air Force Western Test Range (AFWTR). Payload-class satellites include a variety of spacecraft equipped with specific instruments for various scientific and technological missions. These include communications satellites like Starlink; space stations such as the ISS; scientific satellites like the Hubble; Earth observation satellites from companies like Planet Labs, Umbra, and HawkEye 360; GPS; miniature CubeSats for education and research; and military/defense satellites.

Loading next visibility...
Identifier
59713, 2024-088F
Orbit
LEO
Country
Flag of USUS
Related business
Manufacturer
SpaceX/Seattle
Mission
Operational Commercial Communications
Bus & Motor
STARLINK V2MD, Unknown motor
Mass
960 kg wet, ~910 kg dry
Launch date (UTC)
2024-05-10 (2 years ago)
Launch vehicle
FALCON 9
Launch site
Air Force Western Test Range (AFWTR)
Object type
Payload
Rocket body
Debris
Shape & HBR
Box + 2 Pan, 18.1 m
Radar Cross Section
36.964 m², Large (>1 m²)

Expand to show TLE details & history
Last TLE update: 2 days ago

TLE from 2 days ago
0 STARLINK-11100
1 59713U 24088F   26171.40420073 -.00000242  00000-0  28621-5 0  9997
2 59713  53.1594 180.0044 0001117  96.9158 263.1987 15.69704315122405
Epoch: 2026-06-20T09:42Z
TLE epoch observation values (Epoch: 2026-06-20T09:42:02.943Z)
Latitude
-0°
Longitude
125.87283°
Altitude
360.747 km
Speed
7.694 km/s
True Right ascension
12h 00m 01s
True Declination
0° 00' 00"
Sunlit
Object was in daylight at epoch
Visualization orbit readout
Latitude
Unknown
Longitude
Unknown
Altitude
Unknown
Speed
Unknown
Apparent Right ascension
Unknown
Apparent Declination
Unknown
Sunlit
N/A
Visualization observer readout
Local Sidereal Time
21:54:00
Azimuth
Unknown
Elevation
Unknown
Doppler factor
Unknown
Orbital elements
Apogee altitude
360.756 km
Perigee altitude
359.251 km
Semi-major axis
6,738.141 km
Eccentricity
0.00011
Inclination
53.1594°
RAAN
180.0044°
Arg. of periapsis
96.9158°
True anomaly
263.18599°
Mean anomaly
263.1987°
Eccentric anomaly
263.19235°
Mean motion
3.92404 °/min
Orbital period
91.74 mins
BSTAR
0.0000028621
Loading maneuver chart data...
Computing Atmospheric mass density...
Loading historical data...
Loading historical data...
Loading historical data...
Loading historical data...
Loading historical data...
Loading historical data...
Loading historical data...

Documentation

Showing up to 5 results
|